ONEWEB-0050, 45453

Orbit data source: Space-Track

ONEWEB-0050, 45453 is a payload satellite owned by One Web (UK) in LEO that was launched on Sat, 21 Mar 2020 UTC via a SOYUZ-2-1B launch vehicle from the Tyuratam Missile And Space Complex (TTMTR). Payload-class satellites include a variety of spacecraft equipped with specific instruments for various scientific and technological missions. These include communications satellites like Starlink; space stations such as the ISS; scientific satellites like the Hubble; Earth observation satellites from companies like Planet Labs, Umbra, and HawkEye 360; GPS; miniature CubeSats for education and research; and military/defense satellites.

Loading next visibility...
Identifier
45453, 2020-020AF
Orbit
LEO
Country
Flag of UKUK
Related business
Manufacturer
One Web
Mission
Partially operational Commercial Communications
Bus & Motor
ARROW, Unknown motor
Mass
148 kg wet, ~140 kg dry
Launch date (UTC)
2020-03-21 (6 years ago)
Launch vehicle
SOYUZ-2-1B
Launch site
Tyuratam Missile And Space Complex (TTMTR)
Object type
Payload
Rocket body
Debris
Shape & HBR
Trap Box + 2 Pan, 6.7 m
Radar Cross Section
3.464 m², Large (>1 m²)

Expand to show TLE details & history
Last TLE update: 6 hours ago

TLE from 6 hours ago
0 ONEWEB-0050
1 45453U 20020AF  25342.81083981  .00005920  00000-0  61963-3 0  9993
2 45453  88.9236 259.1795 0001806   1.4673 358.6561 14.89506665312036
Epoch: 2025-12-08T19:27Z
TLE epoch observation values (Epoch: 2025-12-08T19:27:36.559Z)
Latitude
0.00002°
Longitude
-110.52735°
Altitude
601.368 km
Speed
7.56 km/s
True Right ascension
17h 16m 43s
True Declination
0° 00' 00"
Sunlit
Object was in daylight at epoch
Visualization orbit readout
Latitude
Unknown
Longitude
Unknown
Altitude
Unknown
Speed
Unknown
Apparent Right ascension
Unknown
Apparent Declination
Unknown
Sunlit
N/A
Visualization observer readout
Local Sidereal Time
23:16:34
Azimuth
Unknown
Elevation
Unknown
Doppler factor
Unknown
Orbital elements
Apogee altitude
597.588 km
Perigee altitude
595.069 km
Semi-major axis
6,974.466 km
Eccentricity
0.00018
Inclination
88.9236°
RAAN
259.1795°
Arg. of periapsis
1.4673°
True anomaly
358.65561°
Mean anomaly
358.6561°
Eccentric anomaly
358.65586°
Mean motion
3.72629 °/min
Orbital period
96.61 mins
BSTAR
0.00061963
Loading maneuver chart data...
Computing Atmospheric mass density...
Loading historical data...
Loading historical data...
Loading historical data...
Loading historical data...
Loading historical data...
Loading historical data...
Loading historical data...

Documentation

Showing up to 5 results
|